GW3341 Weather Reports


Display with metric or nautical units.
time (UTC)temp
F
wind
direction
speed
MPH
gust
MPH
rain 1hr
in
rain 24hr
in
rain mn
in
humidity
%
barometer
mb
20240223073521 63 338 5.0 0.0 0.00 0.00 0.00 52 1013.3
20240223073021 63 7 6.0 0.0 0.00 0.00 0.00 52 1013.3
20240223072521 63 341 8.0 0.0 0.00 0.00 0.00 52 1013.3
20240223072021 63 315 5.0 0.0 0.00 0.00 0.00 51 1013.3
20240223071521 63 337 6.0 0.0 0.00 0.00 0.00 51 1013.3
20240223071021 63 326 6.0 0.0 0.00 0.00 0.00 50 1013.1
20240223070521 64 326 5.0 0.0 0.00 0.00 0.00 50 1013.1
20240223065521 64 334 5.0 0.0 0.00 0.00 0.00 49 1013.0
20240223065021 64 326 5.0 0.0 0.00 0.00 0.00 48 1013.0
20240223063521 65 329 8.0 0.0 0.00 0.00 0.00 48 1013.0
20240223063021 65 333 6.0 0.0 0.00 0.00 0.00 48 1013.0
20240223062521 65 320 6.0 0.0 0.00 0.00 0.00 47 1013.1
20240223061521 65 337 6.0 0.0 0.00 0.00 0.00 47 1013.0
20240223061021 65 336 5.0 0.0 0.00 0.00 0.00 46 1013.0
20240223060521 65 321 8.0 0.0 0.00 0.00 0.00 46 1012.9
20240223060021 65 330 6.0 0.0 0.00 0.00 0.00 46 1012.9
20240223055521 65 322 6.0 0.0 0.00 0.00 0.00 46 1012.7
20240223055021 65 316 6.0 0.0 0.00 0.00 0.00 46 1012.6
20240223054521 65 320 6.0 0.0 0.00 0.00 0.00 45 1012.5
20240223054021 65 325 6.0 0.0 0.00 0.00 0.00 45 1012.5
20240223051521 66 330 3.0 0.0 0.00 0.00 0.00 42 1012.4
20240223051021 66 324 3.0 0.0 0.00 0.00 0.00 41 1012.3
20240223050521 66 336 6.0 0.0 0.00 0.00 0.00 41 1012.3
20240223050021 67 322 5.0 0.0 0.00 0.00 0.00 40 1012.3
20240223045521 67 343 8.0 0.0 0.00 0.00 0.00 40 1012.2
20240223045021 67 321 5.0 0.0 0.00 0.00 0.00 40 1012.2
20240223044521 67 346 6.0 0.0 0.00 0.00 0.00 39 1012.1
20240223044021 68 320 6.0 0.0 0.00 0.00 0.00 39 1012.1
20240223043521 68 329 6.0 0.0 0.00 0.00 0.00 39 1012.0
20240223043021 68 336 10.0 0.0 0.00 0.00 0.00 39 1012.0
20240223041521 68 342 6.0 0.0 0.00 0.00 0.00 37 1012.0
20240223040521 69 317 8.0 0.0 0.00 0.00 0.00 37 1011.7
20240223040021 69 332 12.0 0.0 0.00 0.00 0.00 37 1011.7
20240223035521 69 304 8.0 0.0 0.00 0.00 0.00 37 1011.7
20240223034521 70 332 10.0 0.0 0.00 0.00 0.00 38 1011.5
20240223033521 70 339 8.0 0.0 0.00 0.00 0.00 39 1011.2
20240223033021 70 347 10.0 0.0 0.00 0.00 0.00 39 1011.1
20240223032521 70 334 10.0 0.0 0.00 0.00 0.00 40 1011.1
20240223032021 71 356 10.0 0.0 0.00 0.00 0.00 41 1011.0
20240223031521 71 328 8.0 0.0 0.00 0.00 0.00 42 1010.9
20240223031021 71 335 6.0 0.0 0.00 0.00 0.00 44 1010.8
20240223030521 72 342 8.0 0.0 0.00 0.00 0.00 46 1010.6
20240223025521 72 309 10.0 0.0 0.00 0.00 0.00 52 1010.4
20240223025021 72 343 6.0 0.0 0.00 0.00 0.00 57 1010.3
20240223024521 71 337 5.0 0.0 0.00 0.00 0.00 63 1010.3
20240223024021 69 338 10.0 0.0 0.00 0.00 0.00 69 1010.4
20240223023521 68 25 0.0 0.0 0.00 0.00 0.00 75 1010.3
20240223023021 66 337 0.0 0.0 0.00 0.00 0.00 75 1010.3
20240223022521 67 271 0.0 0.0 0.00 0.00 0.00 74 1010.1
20240223021521 67 140 0.0 0.0 0.00 0.00 0.00 74 1010.0
20240223021021 68 191 0.0 0.0 0.00 0.00 0.00 72 1009.8
20240223020021 69 193 3.0 0.0 0.00 0.00 0.00 70 1009.7
20240223015021 71 173 0.0 0.0 0.00 0.00 0.00 69 1009.6
20240223014521 71 263 3.0 0.0 0.00 0.00 0.00 69 1009.6
20240223014020 71 180 0.0 0.0 0.00 0.00 0.00 68 1009.4
20240223013521 71 185 3.0 0.0 0.00 0.00 0.00 68 1009.3
20240223013021 71 205 0.0 0.0 0.00 0.00 0.00 68 1009.3
20240223012521 71 188 0.0 0.0 0.00 0.00 0.00 68 1009.2
20240223011521 71 149 5.0 0.0 0.00 0.00 0.00 65 1009.2
20240223011021 71 91 0.0 0.0 0.00 0.00 0.00 65 1009.3
20240223010021 72 0 0.0 0.0 0.00 0.00 0.00 64 1009.1
20240223005521 72 158 0.0 0.0 0.00 0.00 0.00 62 1009.0
20240223005021 73 185 3.0 0.0 0.00 0.00 0.00 61 1008.8
20240223004521 74 178 5.0 0.0 0.00 0.00 0.00 60 1008.7
20240223004021 74 173 3.0 0.0 0.00 0.00 0.00 60 1008.7
20240223003521 74 167 6.0 0.0 0.00 0.00 0.00 59 1008.6
20240223003021 74 159 5.0 0.0 0.00 0.00 0.00 58 1008.5
20240223002521 75 177 3.0 0.0 0.00 0.00 0.00 57 1008.5
20240223002021 75 175 3.0 0.0 0.00 0.00 0.00 56 1008.4
20240223001521 76 179 5.0 0.0 0.00 0.00 0.00 55 1008.3
20240223001021 76 193 3.0 0.0 0.00 0.00 0.00 54 1008.2
20240223000521 77 191 3.0 0.0 0.00 0.00 0.00 53 1008.0
20240223000021 78 193 6.0 0.0 0.00 0.00 0.00 51 1008.0
20240222235521 78 216 3.0 0.0 0.00 0.00 0.00 51 1007.9
20240222235021 78 187 5.0 0.0 0.00 0.00 0.00 50 1007.8
20240222234521 78 178 6.0 0.0 0.00 0.00 0.00 50 1007.8
20240222234021 79 171 6.0 0.0 0.00 0.00 0.00 49 1007.7
20240222233521 79 196 6.0 0.0 0.00 0.00 0.00 49 1007.6
20240222232521 79 153 5.0 0.0 0.00 0.00 0.00 49 1007.5
20240222232021 79 171 6.0 0.0 0.00 0.00 0.00 49 1007.5
20240222231521 79 183 6.0 0.0 0.00 0.00 0.00 49 1007.6
20240222231021 80 176 5.0 0.0 0.00 0.00 0.00 49 1007.5
20240222230521 80 200 6.0 0.0 0.00 0.00 0.00 49 1007.5
20240222230021 80 208 8.0 0.0 0.00 0.00 0.00 48 1007.5
20240222225021 80 164 6.0 0.0 0.00 0.00 0.00 49 1007.5
20240222224521 80 183 5.0 0.0 0.00 0.00 0.00 49 1007.5
20240222223521 80 175 5.0 0.0 0.00 0.00 0.00 49 1007.6
20240222223021 80 195 8.0 0.0 0.00 0.00 0.00 49 1007.6
20240222222021 80 209 6.0 0.0 0.00 0.00 0.00 49 1007.6
20240222221521 80 164 5.0 0.0 0.00 0.00 0.00 49 1007.7
20240222221021 80 219 5.0 0.0 0.00 0.00 0.00 50 1007.7
20240222220521 80 193 6.0 0.0 0.00 0.00 0.00 49 1007.6
20240222220021 80 187 3.0 0.0 0.00 0.00 0.00 50 1007.7
20240222215521 80 209 6.0 0.0 0.00 0.00 0.00 49 1007.8
20240222215021 80 188 8.0 0.0 0.00 0.00 0.00 49 1007.7
20240222214521 81 220 3.0 0.0 0.00 0.00 0.00 50 1007.7
20240222214021 80 141 3.0 0.0 0.00 0.00 0.00 51 1007.7
20240222213021 80 165 10.0 0.0 0.00 0.00 0.00 50 1007.9
20240222212521 80 223 6.0 0.0 0.00 0.00 0.00 51 1007.9
20240222212021 80 249 6.0 0.0 0.00 0.00 0.00 50 1008.0
20240222211521 80 191 6.0 0.0 0.00 0.00 0.00 50 1008.0
20240222210521 80 194 5.0 0.0 0.00 0.00 0.00 52 1008.0
20240222210021 80 210 10.0 0.0 0.00 0.00 0.00 51 1008.0
20240222205521 79 149 5.0 0.0 0.00 0.00 0.00 52 1008.0
20240222204020 79 174 8.0 0.0 0.00 0.00 0.00 51 1008.3
20240222203521 79 230 6.0 0.0 0.00 0.00 0.00 54 1008.3
20240222203021 79 197 5.0 0.0 0.00 0.00 0.00 53 1008.4
20240222202521 79 199 6.0 0.0 0.00 0.00 0.00 53 1008.6
20240222201521 78 213 6.0 0.0 0.00 0.00 0.00 56 1008.8
20240222201021 78 150 6.0 0.0 0.00 0.00 0.00 57 1008.7
20240222200521 78 183 6.0 0.0 0.00 0.00 0.00 55 1008.8
20240222200021 78 272 8.0 0.0 0.00 0.00 0.00 56 1008.8
20240222195521 78 206 10.0 0.0 0.00 0.00 0.00 56 1008.8
20240222195021 78 179 8.0 0.0 0.00 0.00 0.00 56 1008.8
20240222194521 78 248 6.0 0.0 0.00 0.00 0.00 58 1008.9
20240222194021 77 196 6.0 0.0 0.00 0.00 0.00 58 1009.0
20240222193521 77 210 10.0 0.0 0.00 0.00 0.00 59 1009.1
20240222193021 77 191 10.0 0.0 0.00 0.00 0.00 59 1009.3
20240222191520 77 196 10.0 0.0 0.00 0.00 0.00 60 1009.5
20240222191021 77 180 8.0 0.0 0.00 0.00 0.00 60 1009.4
20240222190521 76 204 10.0 0.0 0.00 0.00 0.00 61 1009.7
20240222190021 76 193 10.0 0.0 0.00 0.00 0.00 61 1009.8
20240222185521 76 209 12.0 0.0 0.00 0.00 0.00 63 1009.9
20240222184520 75 205 10.0 0.0 0.00 0.00 0.00 64 1010.3
20240222184021 75 203 6.0 0.0 0.00 0.00 0.00 66 1010.5
20240222183020 74 215 6.0 0.0 0.00 0.00 0.00 66 1010.7
20240222182521 74 214 6.0 0.0 0.00 0.00 0.00 67 1010.7
20240222182021 74 163 8.0 0.0 0.00 0.00 0.00 67 1010.9
20240222181520 73 203 8.0 0.0 0.00 0.00 0.00 68 1010.8
20240222181021 74 185 6.0 0.0 0.00 0.00 0.00 67 1010.9
20240222180521 73 161 6.0 0.0 0.00 0.00 0.00 69 1011.1
20240222180021 73 199 19.0 0.0 0.00 0.00 0.00 68 1011.0
20240222175520 73 205 12.0 0.0 0.00 0.00 0.00 70 1011.3
20240222175020 73 212 12.0 0.0 0.00 0.00 0.00 70 1011.5
20240222174521 73 211 10.0 0.0 0.00 0.00 0.00 70 1011.5
20240222173521 72 194 10.0 0.0 0.00 0.00 0.00 70 1011.3
20240222173021 73 208 12.0 0.0 0.00 0.00 0.00 71 1011.5
20240222172520 72 241 12.0 0.0 0.00 0.00 0.00 71 1011.3
20240222172021 72 216 12.0 0.0 0.00 0.00 0.00 74 1011.6
20240222171521 71 199 8.0 0.0 0.00 0.00 0.00 74 1011.7
20240222171020 71 203 15.0 0.0 0.00 0.00 0.00 74 1011.7
20240222165521 70 209 14.0 0.0 0.00 0.00 0.00 75 1011.9
20240222165021 70 217 12.0 0.0 0.00 0.00 0.00 75 1012.0
20240222164021 70 175 12.0 0.0 0.00 0.00 0.00 75 1011.9
20240222163521 70 199 8.0 0.0 0.00 0.00 0.00 76 1011.9
20240222163021 69 212 8.0 0.0 0.00 0.00 0.00 76 1012.0
20240222162521 69 184 10.0 0.0 0.00 0.00 0.00 77 1011.9
20240222162021 69 183 10.0 0.0 0.00 0.00 0.00 77 1011.9
20240222161521 69 179 8.0 0.0 0.00 0.00 0.00 77 1012.0
20240222160521 69 177 14.0 0.0 0.00 0.00 0.00 77 1012.0
20240222160021 69 199 10.0 0.0 0.00 0.00 0.00 77 1012.2
20240222155521 69 192 8.0 0.0 0.00 0.00 0.00 78 1012.4
20240222154020 68 216 6.0 0.0 0.00 0.00 0.00 79 1012.4
20240222153520 68 200 12.0 0.0 0.00 0.00 0.00 79 1012.4
20240222153021 68 202 12.0 0.0 0.00 0.00 0.00 79 1012.5
20240222152521 68 196 8.0 0.0 0.00 0.00 0.00 79 1012.5
20240222152021 68 205 12.0 0.0 0.00 0.00 0.00 79 1012.2
20240222151021 68 211 14.0 0.0 0.00 0.00 0.00 79 1012.3
20240222150521 68 201 12.0 0.0 0.00 0.00 0.00 79 1012.2
20240222150021 67 198 12.0 0.0 0.00 0.00 0.00 80 1012.2
20240222145521 67 205 12.0 0.0 0.00 0.00 0.00 80 1012.2
20240222145021 67 196 8.0 0.0 0.00 0.00 0.00 80 1012.1
20240222144020 67 197 14.0 0.0 0.00 0.00 0.00 81 1011.8
20240222143521 67 162 8.0 0.0 0.00 0.00 0.00 81 1011.6
20240222142521 67 211 8.0 0.0 0.00 0.00 0.00 82 1011.6
20240222142021 67 155 6.0 0.0 0.00 0.00 0.00 82 1011.5
20240222141521 66 206 10.0 0.0 0.00 0.00 0.00 82 1011.5
20240222141020 66 187 8.0 0.0 0.00 0.00 0.00 82 1011.6
20240222140521 66 174 10.0 0.0 0.00 0.00 0.00 83 1011.6
20240222140021 66 168 6.0 0.0 0.00 0.00 0.00 83 1011.6
20240222135021 66 202 10.0 0.0 0.00 0.00 0.00 83 1011.8
20240222134520 66 171 6.0 0.0 0.00 0.00 0.00 83 1012.2
20240222134020 66 210 8.0 0.0 0.00 0.00 0.00 83 1012.2
20240222133521 65 177 10.0 0.0 0.00 0.00 0.00 83 1012.1
20240222133021 65 205 6.0 0.0 0.00 0.00 0.00 83 1012.1
20240222132521 65 175 6.0 0.0 0.00 0.00 0.00 84 1012.1
20240222132020 65 192 10.0 0.0 0.00 0.00 0.00 84 1011.9
20240222131521 65 179 10.0 0.0 0.00 0.00 0.00 84 1011.9
20240222131020 65 199 8.0 0.0 0.00 0.00 0.00 84 1011.9
20240222130521 65 169 8.0 0.0 0.00 0.00 0.00 84 1012.0
20240222130021 65 181 6.0 0.0 0.00 0.00 0.00 83 1012.2
20240222125521 65 180 8.0 0.0 0.00 0.00 0.00 83 1012.2
20240222124521 65 192 5.0 0.0 0.00 0.00 0.00 83 1012.3
20240222124021 65 177 8.0 0.0 0.00 0.00 0.00 83 1012.3
20240222123521 65 169 8.0 0.0 0.00 0.00 0.00 83 1012.4
20240222123020 65 194 8.0 0.0 0.00 0.00 0.00 82 1012.3
20240222122521 65 173 12.0 0.0 0.00 0.00 0.00 82 1012.4
20240222122021 65 159 6.0 0.0 0.00 0.00 0.00 82 1012.3
20240222121020 65 196 5.0 0.0 0.00 0.00 0.00 82 1012.3
20240222120521 65 181 5.0 0.0 0.00 0.00 0.00 82 1012.1
20240222120021 65 193 15.0 0.0 0.00 0.00 0.00 81 1012.1
20240222115520 65 192 6.0 0.0 0.00 0.00 0.00 81 1012.5
20240222115020 66 166 6.0 0.0 0.00 0.00 0.00 81 1012.1
20240222114520 66 193 12.0 0.0 0.00 0.00 0.00 81 1012.2
20240222114020 66 174 15.0 0.0 0.00 0.00 0.00 81 1012.3
20240222113521 66 184 6.0 0.0 0.00 0.00 0.00 80 1012.3
20240222113020 66 191 10.0 0.0 0.00 0.00 0.00 80 1012.8
20240222112520 66 198 5.0 0.0 0.00 0.00 0.00 80 1013.2
20240222112020 66 209 6.0 0.0 0.00 0.00 0.00 79 1013.2
20240222111521 66 219 6.0 0.0 0.00 0.00 0.00 79 1013.3
20240222111021 66 195 5.0 0.0 0.00 0.00 0.00 79 1013.2
20240222110521 66 207 8.0 0.0 0.00 0.00 0.00 79 1013.2
20240222110021 66 200 5.0 0.0 0.00 0.00 0.00 78 1013.0
20240222105520 66 212 8.0 0.0 0.00 0.00 0.00 78 1013.1
20240222105021 66 223 5.0 0.0 0.00 0.00 0.00 78 1013.4
20240222104521 66 199 10.0 0.0 0.00 0.00 0.00 78 1013.1
20240222104021 66 186 12.0 0.0 0.00 0.00 0.00 78 1013.1
20240222103521 66 206 10.0 0.0 0.00 0.00 0.00 78 1012.8
20240222102521 66 204 5.0 0.0 0.00 0.00 0.00 78 1012.8
20240222101521 66 202 6.0 0.0 0.00 0.00 0.00 78 1013.0
20240222101021 66 213 8.0 0.0 0.00 0.00 0.00 79 1012.8
20240222100520 66 195 10.0 0.0 0.00 0.00 0.00 79 1012.7
20240222095520 66 198 8.0 0.0 0.00 0.00 0.00 79 1012.8
20240222095021 66 194 6.0 0.0 0.00 0.00 0.00 79 1012.8
20240222094521 66 180 5.0 0.0 0.00 0.00 0.00 79 1012.6
20240222094020 66 192 12.0 0.0 0.00 0.00 0.00 79 1012.5
20240222092521 66 187 6.0 0.0 0.00 0.00 0.00 79 1012.1
20240222092021 66 187 6.0 0.0 0.00 0.00 0.00 79 1012.2
20240222091020 66 163 12.0 0.0 0.00 0.00 0.00 79 1012.2
20240222090521 66 207 17.0 0.0 0.00 0.00 0.00 79 1012.2
20240222090020 66 198 14.0 0.0 0.00 0.00 0.00 79 1012.3
20240222085020 66 225 8.0 0.0 0.00 0.00 0.00 79 1012.1
20240222084521 66 156 10.0 0.0 0.00 0.00 0.00 79 1012.2
20240222083520 66 192 8.0 0.0 0.00 0.00 0.00 79 1012.2
20240222083021 66 187 12.0 0.0 0.00 0.00 0.00 79 1012.4
20240222082520 66 210 10.0 0.0 0.00 0.00 0.00 79 1012.4
20240222082020 66 187 12.0 0.0 0.00 0.00 0.00 79 1012.5
20240222081020 66 170 10.0 0.0 0.00 0.00 0.00 79 1012.5
20240222080020 66 177 12.0 0.0 0.00 0.00 0.00 79 1012.6
20240222075520 66 131 8.0 0.0 0.00 0.00 0.00 79 1012.7
20240222075021 66 186 12.0 0.0 0.00 0.00 0.00 79 1012.8